Regional Weather Roundup
Issued by NWS Lake Charles, LA

Home | Current Version | Previous Version | Text Only | Print | Product List | Glossary On
Versions: 1 2 3 4 5 6 7 8 9 10 11 12 13 14 15 16 17 18 19 20 21 22 23 24 25 26 27 28 29 30 31 32 33 34 35 36 37 38 39 40 41 42 43 44 45 46 47 48
000
ASUS44 KLCH 290810
RWRLCH
RWRLCH
REGIONAL WEATHER ROUNDUP
NATIONAL WEATHER SERVICE LAKE CHARLES LA
300 AM CDT FRI MAY 29 2015

Note: "fair" indicates few or no clouds below 12,000 feet with no
significant weather and/or obstructions to visibility.


ACROSS SOUTHEAST TEXAS

CITY           SKY/WX    TMP DP  RH WIND       PRES   REMARKS
BEAUMONT       CLEAR     77  74  90 S9        29.98F
BEAUMONT CITY    N/A     74  73  97 SE3       29.99F
ORANGE         MOSUNNY   76  74  92 S3        30.01F
JASPER         CLEAR     75  73  95 CALM      30.01F
$$

ACROSS CENTRAL LOUISIANA

CITY           SKY/WX    TMP DP  RH WIND       PRES   REMARKS
LEESVILLE      MOCLDY    73  72  94 SE6       29.99F
FULLERTON        N/A     72  68  87 CALM      29.98F
ALEXANDRIA INT CLEAR     73  71  93 S3        29.98F
ESLER FIELD    CLEAR     72  69  90 S3        29.99F
DERIDDER       CLOUDY    74  72  95 CALM      30.02F
OAKDALE        PTSUNNY   70  69  96 CALM      30.01S FOG
OPELOUSAS      PTSUNNY  N/A N/A N/A E3        30.02S
$$

ACROSS SOUTHWEST AND SOUTH CENTRAL LOUISIANA

CITY           SKY/WX    TMP DP  RH WIND       PRES   REMARKS
SULPHUR        SUNNY     77  75  94 SE5       30.01S
LAKE CHARLES   CLEAR     75  73  93 S5        30.01R
CHENNAULT INT  CLEAR     73  72  98 S5        30.01S
CAMERON PHI    PTSUNNY   81  73  78 S14       30.03S
DEQUINCY         N/A     72  72 100 CALM      30.00F
JENNINGS         N/A     75  74  95 CALM      30.01S
LAFAYETTE      CLEAR     75  73  93 CALM      30.01F
NEW IBERIA     CLEAR     75  73  93 SE3       30.02F
ABBEVILLE        N/A     75  73  95 S3        30.01S
PATTERSON      CLEAR     73  72  94 SE3       30.03S
SALT POINT       N/A     77  74  90 SE3       29.99F
$$

SELECTED SITES ACROSS THE REGION

CITY           SKY/WX    TMP DP  RH WIND       PRES   REMARKS
HOUSTON BUSH   MOCLDY    77  74  90 S5        29.96F
HOUSTON HOBBY  MOCLDY    77  75  93 S5        29.96F
GALVESTON      MOCLDY    80  77  90 S17       29.98F
COLLEGE STAT   CLOUDY    76  73  91 S12       29.95F
CONROE         CLOUDY    75  72  90 S7        29.97F
HUNTSVILLE     MOCLDY    75  73  93 S7        29.97F
LUFKIN         CLOUDY    77  72  84 S8        29.97F
SHREVEPORT     PTCLDY    71  66  84 S7        29.97F
MONROE         CLEAR     73  70  90 VRB3      29.99F
NATCHEZ MS     CLEAR     73  70  88 S7        30.03S
BATON ROUGE    CLEAR     75  72  90 CALM      30.03S
N.O. INTL ARPT PTCLDY    75  71  87 SE6       30.03F
SLIDELL        CLEAR     72  72 100 CALM      30.03F
$$

MARINE REPORTS

STATION/POSITION TIME  TEMP    WIND        PRES    VSBY  WAVE
                       AIR SEA DIR/SP/G                  HT/PER
                 (UTC) (F)     (DEG/KT/KT) (MB)    (MI)  (FT/S)
BUOY 30 S HIGH I 0750   80 81  160/ 14/ 16 1014.7F         3/ 4
SEA RIM ST PARK  0800   80     170/ 14/ 18 1015.9F
PORT ARTHUR      0700      77  170/  6/ 11 1016.0F
SABINE PASS N    0700      79                N/A
TEXAS POINT      NOT AVBL
CALCASIEU PASS   0700      82                N/A
LK CHARLES BEACH 0712   76 77              1016.2F
MARSH ISLAND     0700   84     170/ 13/ 16   N/A           0
FRESH WATER LOCK 0712   79 82  140/  9/ 15   N/A
AMERADA PASS     0712   77 76  150/  4/  5 1016.3F
$$


USA.gov is the U.S. government's official web portal to all federal, state and local government web resources and services.